KZR918 LTFM-UACC

Flight info

Callsign KZR918
Flight time N/A
Altitude 35000
Route VICEN DCT ASMAP UL333 LATGA UT363 GURBU UA4 ERZ UT309 KAR UT165 REBLO M11 MATAL T916 LEYLA N161 GASBI/K0833F370 N161 MASAV N55 OGANU P574 VETUB
Aircraft A21N/M-SDE2E3FGHIRWXY/LB1

Departure

Time 2026-05-01 09:21
Airport İstanbul Airport (LTFM)

Arrival

Time N/A
Airport Nursultan Nazarbayev International Airport (UACC)
Time Latitude Longitude Altitude Speed Heading
2026-05-01 08:51 41.26356 28.74421 334 ft 0 kts 210°
2026-05-01 09:08 41.26358 28.74422 334 ft 1 kts 210°
2026-05-01 09:08 41.26371 28.74432 334 ft 2 kts 210°
2026-05-01 09:09 41.26383 28.74443 334 ft 2 kts 223°
2026-05-01 09:09 41.26393 28.74457 334 ft 2 kts 232°
2026-05-01 09:09 41.26401 28.74474 334 ft 2 kts 243°
2026-05-01 09:09 41.26407 28.74492 334 ft 2 kts 253°
2026-05-01 09:10 41.26411 28.74511 334 ft 2 kts 263°
2026-05-01 09:10 41.26411 28.74527 334 ft 0 kts 271°
2026-05-01 09:10 41.26411 28.74535 334 ft 0 kts 274°
2026-05-01 09:12 41.26411 28.74534 334 ft 0 kts 274°
2026-05-01 09:12 41.26414 28.74519 334 ft 3 kts 289°
2026-05-01 09:13 41.26431 28.74486 334 ft 5 kts 331°
2026-05-01 09:13 41.26477 28.74477 334 ft 8 kts 358°
2026-05-01 09:13 41.26543 28.74475 334 ft 10 kts 360°
2026-05-01 09:13 41.26626 28.74474 334 ft 13 kts 360°
2026-05-01 09:14 41.26725 28.74471 334 ft 15 kts 360°
2026-05-01 09:14 41.26799 28.74471 334 ft 10 kts
2026-05-01 09:14 41.26879 28.74467 334 ft 12 kts 357°
2026-05-01 09:14 41.26952 28.74485 334 ft 9 kts 43°
2026-05-01 09:15 41.26969 28.74572 334 ft 10 kts 88°
2026-05-01 09:15 41.26970 28.74670 334 ft 10 kts 90°
2026-05-01 09:15 41.26971 28.74773 334 ft 11 kts 89°
2026-05-01 09:15 41.26972 28.74881 334 ft 12 kts 90°
2026-05-01 09:16 41.26972 28.75006 334 ft 14 kts 89°
2026-05-01 09:16 41.26973 28.75151 334 ft 15 kts 88°
2026-05-01 09:16 41.26976 28.75272 334 ft 12 kts 89°
2026-05-01 09:17 41.26905 28.75406 334 ft 10 kts 178°
2026-05-01 09:17 41.26822 28.75410 334 ft 13 kts 178°
2026-05-01 09:17 41.26612 28.75419 334 ft 16 kts 178°
2026-05-01 09:18 41.26503 28.75423 334 ft 14 kts 179°
2026-05-01 09:18 41.26416 28.75490 334 ft 4 kts 88°
2026-05-01 09:19 41.26419 28.75602 334 ft 8 kts 89°
2026-05-01 09:19 41.26448 28.75660 334 ft 8 kts 16°
2026-05-01 09:19 41.26471 28.75663 334 ft 0 kts
2026-05-01 09:20 41.26869 28.75656 334 ft 89 kts 360°
2026-05-01 09:20 41.28778 28.75605 774 ft 159 kts
2026-05-01 09:21 41.30866 28.76234 2061 ft 160 kts 40°
2026-05-01 09:21 41.31701 28.77223 2439 ft 168 kts 37°
2026-05-01 09:21 41.33828 28.79055 3006 ft 197 kts 33°
2026-05-01 09:22 41.36392 28.81094 3647 ft 229 kts 32°
2026-05-01 09:22 41.38301 28.84539 4648 ft 248 kts 79°
2026-05-01 09:23 41.38396 28.86844 5366 ft 250 kts 87°
2026-05-01 09:23 41.38136 28.91506 6672 ft 261 kts 110°
2026-05-01 09:24 41.35493 28.94674 7793 ft 279 kts 162°
2026-05-01 09:24 41.33560 28.94922 8199 ft 287 kts 178°
2026-05-01 09:24 41.29643 28.94839 9584 ft 287 kts 177°
2026-05-01 09:25 41.25644 28.94865 10684 ft 297 kts 178°
2026-05-01 09:25 41.21406 28.94540 11195 ft 326 kts 181°
2026-05-01 09:26 41.19108 28.94320 11444 ft 340 kts 181°
2026-05-01 09:26 41.14302 28.93862 11910 ft 366 kts 182°
2026-05-01 09:26 41.11791 28.93625 12290 ft 372 kts 182°
2026-05-01 09:27 41.06650 28.93144 13519 ft 372 kts 182°
2026-05-01 09:27 41.04113 28.93056 14095 ft 370 kts 173°
2026-05-01 09:27 41.01648 28.93926 14630 ft 369 kts 155°
2026-05-01 09:28 40.99519 28.95828 15128 ft 371 kts 139°
2026-05-01 09:28 40.97655 28.98223 15599 ft 374 kts 136°
2026-05-01 09:28 40.95836 29.00650 16011 ft 377 kts 136°
2026-05-01 09:28 40.93988 29.03101 16451 ft 379 kts 137°
2026-05-01 09:29 40.90217 29.08031 17347 ft 382 kts 137°
2026-05-01 09:29 40.88318 29.10495 17750 ft 385 kts 137°
2026-05-01 09:30 40.84858 29.15876 18508 ft 394 kts 122°
2026-05-01 09:30 40.83693 29.19190 18884 ft 400 kts 111°
2026-05-01 09:30 40.82246 29.26215 19589 ft 407 kts 107°
2026-05-01 09:31 40.81560 29.29827 19927 ft 409 kts 107°
2026-05-01 09:31 40.80859 29.33448 20262 ft 411 kts 106°
2026-05-01 09:31 40.79375 29.40858 20707 ft 422 kts 104°
2026-05-01 09:32 40.78632 29.44617 21000 ft 425 kts 104°
2026-05-01 09:32 40.77135 29.52124 21630 ft 428 kts 104°
2026-05-01 09:32 40.76367 29.55953 21929 ft 430 kts 104°
2026-05-01 09:33 40.75596 29.59787 22222 ft 432 kts 104°
2026-05-01 09:33 40.74825 29.63615 22508 ft 434 kts 104°
2026-05-01 09:33 40.73609 29.71407 23055 ft 438 kts 97°
2026-05-01 09:34 40.73344 29.75382 23319 ft 440 kts 92°
2026-05-01 09:34 40.73246 29.79376 23581 ft 441 kts 91°
2026-05-01 09:34 40.73127 29.87401 24084 ft 444 kts 91°
2026-05-01 09:35 40.73061 29.91478 24326 ft 446 kts 91°
2026-05-01 09:35 40.72910 29.99621 24796 ft 449 kts 91°
2026-05-01 09:35 40.72719 30.03720 25018 ft 451 kts 96°
2026-05-01 09:36 40.72221 30.07837 25241 ft 452 kts 102°
2026-05-01 09:36 40.71409 30.11864 25458 ft 454 kts 107°
2026-05-01 09:36 40.70405 30.15787 25674 ft 455 kts 109°
2026-05-01 09:36 40.69340 30.19749 25881 ft 457 kts 109°
2026-05-01 09:37 40.68281 30.23682 26111 ft 457 kts 109°
2026-05-01 09:37 40.66584 30.31711 26695 ft 455 kts 101°
2026-05-01 09:37 40.66077 30.35817 26973 ft 455 kts 97°
2026-05-01 09:38 40.65388 30.44048 27509 ft 454 kts 96°
2026-05-01 09:38 40.65059 30.48166 27778 ft 453 kts 96°
2026-05-01 09:38 40.64724 30.52284 28049 ft 453 kts 96°
2026-05-01 09:39 40.64037 30.60539 28596 ft 452 kts 96°
2026-05-01 09:39 40.63698 30.64542 28861 ft 451 kts 96°
2026-05-01 09:39 40.63311 30.68481 29120 ft 451 kts 99°
2026-05-01 09:40 40.62749 30.72526 29389 ft 450 kts 102°
2026-05-01 09:40 40.61182 30.80499 29923 ft 449 kts 105°
2026-05-01 09:40 40.60355 30.84388 30184 ft 449 kts 105°
2026-05-01 09:41 40.59514 30.88333 30446 ft 448 kts 105°
2026-05-01 09:41 40.57827 30.96250 30971 ft 447 kts 105°
2026-05-01 09:41 40.56994 31.00161 31230 ft 447 kts 105°
2026-05-01 09:42 40.56150 31.04119 31487 ft 446 kts 105°
2026-05-01 09:42 40.55315 31.08030 31737 ft 446 kts 105°
2026-05-01 09:42 40.53644 31.15832 32225 ft 445 kts 105°
2026-05-01 09:43 40.51962 31.23656 32702 ft 444 kts 105°
2026-05-01 09:43 40.51121 31.27550 32933 ft 443 kts 105°
2026-05-01 09:43 40.50301 31.31339 33156 ft 443 kts 105°
2026-05-01 09:44 40.48605 31.39154 33532 ft 444 kts 105°
2026-05-01 09:44 40.47752 31.43072 33698 ft 445 kts 105°
2026-05-01 09:44 40.46899 31.46984 33866 ft 446 kts 105°
2026-05-01 09:45 40.46041 31.50917 34034 ft 446 kts 105°
2026-05-01 09:45 40.44338 31.58717 34357 ft 447 kts 105°
2026-05-01 09:45 40.43762 31.61349 34462 ft 448 kts 105°
2026-05-01 09:46 40.42614 31.66586 34666 ft 449 kts 106°
2026-05-01 09:46 40.41746 31.70531 34817 ft 449 kts 106°
2026-05-01 09:46 40.40891 31.74416 34959 ft 450 kts 106°
2026-05-01 09:46 40.40022 31.78357 34981 ft 451 kts 106°
2026-05-01 09:47 40.38280 31.86234 34986 ft 451 kts 106°
2026-05-01 09:47 40.36527 31.94131 34986 ft 451 kts 106°
2026-05-01 09:48 40.34775 32.01959 34987 ft 451 kts 106°
2026-05-01 09:48 40.33024 32.09833 34986 ft 451 kts 104°
2026-05-01 09:49 40.31448 32.17779 34987 ft 451 kts 104°
2026-05-01 09:49 40.29886 32.25715 34987 ft 451 kts 104°
2026-05-01 09:50 40.28309 32.33680 34987 ft 451 kts 104°
2026-05-01 09:50 40.26728 32.41625 34987 ft 451 kts 104°
2026-05-01 09:51 40.25138 32.49585 34987 ft 451 kts 104°
2026-05-01 09:51 40.23545 32.57524 34987 ft 451 kts 104°
2026-05-01 09:52 40.21951 32.65439 34987 ft 451 kts 105°
2026-05-01 09:52 40.20356 32.73329 34986 ft 451 kts 105°
2026-05-01 09:53 40.18744 32.81273 34986 ft 451 kts 105°
2026-05-01 09:53 40.17139 32.89143 34986 ft 451 kts 105°
2026-05-01 09:54 40.15737 32.97122 34986 ft 451 kts 99°
2026-05-01 09:54 40.15006 33.05248 34987 ft 451 kts 93°
2026-05-01 09:55 40.14974 33.13434 34987 ft 451 kts 88°
2026-05-01 09:55 40.15223 33.21618 34987 ft 451 kts 88°
2026-05-01 09:56 40.15468 33.29825 34987 ft 451 kts 88°
2026-05-01 09:56 40.15698 33.37995 34987 ft 451 kts 88°
2026-05-01 09:57 40.15921 33.46207 34987 ft 451 kts 88°
2026-05-01 09:57 40.16137 33.54397 34987 ft 451 kts 88°
2026-05-01 09:58 40.16346 33.62578 34987 ft 451 kts 88°
2026-05-01 09:58 40.16548 33.70738 34987 ft 451 kts 88°
2026-05-01 09:59 40.16690 33.78957 34986 ft 451 kts 91°
2026-05-01 09:59 40.16256 33.87104 34986 ft 451 kts 97°
2026-05-01 10:00 40.15227 33.95192 34986 ft 451 kts 99°
2026-05-01 10:00 40.14312 34.03352 34987 ft 451 kts 98°
2026-05-01 10:01 40.13434 34.11455 34987 ft 451 kts 98°
2026-05-01 10:01 40.12553 34.19540 34987 ft 451 kts 98°
2026-05-01 10:02 40.11663 34.27655 34987 ft 451 kts 98°
2026-05-01 10:02 40.10764 34.35796 34987 ft 451 kts 98°
2026-05-01 10:03 40.09863 34.43898 34987 ft 451 kts 98°
2026-05-01 10:03 40.08957 34.51991 34987 ft 451 kts 98°
2026-05-01 10:04 40.08044 34.60100 34987 ft 451 kts 98°
2026-05-01 10:04 40.07130 34.68161 34987 ft 451 kts 98°
2026-05-01 10:05 40.06207 34.76252 34986 ft 451 kts 98°
2026-05-01 10:05 40.05280 34.84331 34986 ft 451 kts 98°
2026-05-01 10:06 40.04345 34.92426 34986 ft 451 kts 98°
2026-05-01 10:06 40.03404 35.00516 34987 ft 451 kts 98°
2026-05-01 10:07 40.02458 35.08605 34987 ft 451 kts 98°
2026-05-01 10:07 40.01505 35.16700 34987 ft 451 kts 98°
2026-05-01 10:08 40.00069 35.28799 34987 ft 451 kts 98°
2026-05-01 10:09 39.99098 35.36912 34987 ft 451 kts 99°
2026-05-01 10:09 39.98089 35.44985 34987 ft 451 kts 99°
2026-05-01 10:10 39.97065 35.53059 34987 ft 451 kts 99°
2026-05-01 10:10 39.95533 35.65100 34988 ft 451 kts 99°
2026-05-01 10:11 39.94498 35.73183 34986 ft 451 kts 99°
2026-05-01 10:11 39.93464 35.81209 34986 ft 451 kts 99°
2026-05-01 10:12 39.92600 35.87888 34986 ft 451 kts 99°
2026-05-01 10:13 39.90847 36.01331 34987 ft 451 kts 99°
2026-05-01 10:13 39.89787 36.09401 34987 ft 451 kts 99°
2026-05-01 10:14 39.88192 36.21448 34986 ft 451 kts 99°
2026-05-01 10:14 39.87109 36.29488 34986 ft 451 kts 100°
2026-05-01 10:15 39.85927 36.37499 34986 ft 451 kts 100°
2026-05-01 10:15 39.84842 36.45565 34986 ft 451 kts 99°
2026-05-01 10:16 39.83779 36.53614 34986 ft 451 kts 99°
2026-05-01 10:17 39.82167 36.65651 34986 ft 451 kts 100°
2026-05-01 10:17 39.80534 36.77703 34987 ft 451 kts 100°
2026-05-01 10:18 39.79472 36.89770 34987 ft 451 kts 91°
2026-05-01 10:19 39.79630 36.97930 34987 ft 451 kts 85°
2026-05-01 10:19 39.80279 37.06035 34987 ft 451 kts 83°
2026-05-01 10:20 39.81294 37.18224 34986 ft 451 kts 84°
2026-05-01 10:20 39.81951 37.26337 34986 ft 451 kts 84°
2026-05-01 10:21 39.82912 37.38404 34986 ft 451 kts 84°
2026-05-01 10:22 39.83850 37.50437 34986 ft 451 kts 84°
2026-05-01 10:23 39.84776 37.62616 34986 ft 451 kts 84°
2026-05-01 10:23 39.85691 37.74784 34987 ft 451 kts 84°
2026-05-01 10:24 39.86885 37.90944 34987 ft 451 kts 84°
2026-05-01 10:25 39.88072 38.07214 34987 ft 451 kts 84°
2026-05-01 10:26 39.88662 38.15339 34986 ft 451 kts 84°
2026-05-01 10:27 39.89818 38.31535 34986 ft 451 kts 84°
2026-05-01 10:28 39.90673 38.43719 34986 ft 451 kts 84°
2026-05-01 10:28 39.91515 38.55920 34986 ft 451 kts 84°
2026-05-01 10:29 39.92346 38.68121 34986 ft 451 kts 85°
2026-05-01 10:30 39.93425 38.84280 34987 ft 451 kts 85°
2026-05-01 10:31 39.93914 39.00552 34987 ft 451 kts 89°
2026-05-01 10:32 39.94094 39.12763 34986 ft 451 kts 89°
2026-05-01 10:33 39.94352 39.29032 34986 ft 451 kts 89°
2026-05-01 10:34 39.94530 39.41285 34986 ft 451 kts 89°
2026-05-01 10:34 39.94641 39.49456 34986 ft 451 kts 89°
2026-05-01 10:35 39.94797 39.61705 34986 ft 451 kts 89°
2026-05-01 10:35 39.94898 39.69889 34986 ft 451 kts 89°
2026-05-01 10:36 39.95038 39.82045 34987 ft 451 kts 89°
2026-05-01 10:37 39.95123 39.90220 34987 ft 451 kts 89°
2026-05-01 10:37 39.95235 40.02462 34987 ft 451 kts 89°
2026-05-01 10:38 39.95302 40.10621 34986 ft 451 kts 89°
2026-05-01 10:38 39.95363 40.18740 34986 ft 451 kts 89°
2026-05-01 10:39 39.95419 40.26930 34986 ft 451 kts 89°
2026-05-01 10:39 39.95469 40.35052 34986 ft 451 kts 89°
2026-05-01 10:40 39.95514 40.43241 34986 ft 451 kts 89°
2026-05-01 10:40 39.95553 40.51383 34986 ft 451 kts 89°
2026-05-01 10:41 39.95586 40.59523 34986 ft 451 kts 89°
2026-05-01 10:42 39.95626 40.71777 34987 ft 451 kts 90°
2026-05-01 10:42 39.95647 40.79940 34987 ft 451 kts 90°
2026-05-01 10:43 39.95662 40.88060 34987 ft 451 kts 90°
2026-05-01 10:43 39.95672 40.96211 34987 ft 451 kts 90°
2026-05-01 10:44 39.95675 41.04365 34987 ft 451 kts 90°
2026-05-01 10:44 39.95795 41.12521 34986 ft 451 kts 85°
2026-05-01 10:45 39.96629 41.20570 34986 ft 451 kts 78°
2026-05-01 10:45 39.98278 41.28442 34986 ft 451 kts 70°
2026-05-01 10:46 40.00622 41.36007 34987 ft 451 kts 66°
2026-05-01 10:46 40.03119 41.43536 34986 ft 451 kts 66°
2026-05-01 10:47 40.05590 41.51047 34986 ft 451 kts 66°
2026-05-01 10:47 40.08039 41.58538 34986 ft 451 kts 66°
2026-05-01 10:48 40.10490 41.66070 34986 ft 451 kts 67°
2026-05-01 10:48 40.12900 41.73514 34986 ft 451 kts 67°
2026-05-01 10:49 40.15298 41.81010 34986 ft 451 kts 67°
2026-05-01 10:49 40.17696 41.88528 34986 ft 451 kts 67°
2026-05-01 10:50 40.20086 41.96035 34987 ft 451 kts 67°
2026-05-01 10:50 40.22427 42.03409 34987 ft 451 kts 67°
2026-05-01 10:51 40.24689 42.10548 34987 ft 451 kts 67°
2026-05-01 10:51 40.27080 42.18118 34987 ft 451 kts 67°
2026-05-01 10:52 40.29050 42.24371 34987 ft 451 kts 67°
2026-05-01 10:52 40.31446 42.31994 34987 ft 451 kts 67°
2026-05-01 10:53 40.33823 42.39575 34987 ft 451 kts 67°
2026-05-01 10:53 40.36198 42.47176 34987 ft 451 kts 67°
2026-05-01 10:54 40.38564 42.54781 34987 ft 451 kts 68°
2026-05-01 10:54 40.40931 42.62437 34987 ft 451 kts 68°
2026-05-01 10:55 40.43277 42.70042 34987 ft 451 kts 68°
2026-05-01 10:55 40.45616 42.77651 34987 ft 451 kts 68°
2026-05-01 10:56 40.47957 42.85257 34987 ft 451 kts 68°
2026-05-01 10:56 40.50314 42.92912 34987 ft 451 kts 68°
2026-05-01 10:57 40.52642 43.00504 34987 ft 451 kts 68°
2026-05-01 10:57 40.55098 43.08150 34986 ft 451 kts 64°
2026-05-01 10:58 40.58102 43.15395 34986 ft 451 kts 58°
2026-05-01 10:58 40.61499 43.22344 34987 ft 451 kts 57°
2026-05-01 10:59 40.64914 43.29267 34987 ft 451 kts 57°
2026-05-01 10:59 40.68304 43.36194 34986 ft 451 kts 57°
2026-05-01 11:00 40.71686 43.43127 34986 ft 451 kts 57°
2026-05-01 11:00 40.75083 43.50108 34986 ft 451 kts 57°
2026-05-01 11:01 40.78447 43.57041 34986 ft 451 kts 57°
2026-05-01 11:01 40.81358 43.64352 34985 ft 451 kts 68°
2026-05-01 11:02 40.83109 43.72260 34986 ft 451 kts 80°
2026-05-01 11:02 40.83623 43.80533 34987 ft 451 kts 91°
2026-05-01 11:03 40.83392 43.88803 34987 ft 451 kts 93°
2026-05-01 11:03 40.83086 43.97047 34987 ft 451 kts 92°
2026-05-01 11:04 40.82789 44.05279 34987 ft 451 kts 92°
2026-05-01 11:04 40.82494 44.13575 34986 ft 451 kts 92°
2026-05-01 11:05 40.82198 44.21853 34986 ft 451 kts 92°
2026-05-01 11:05 40.81896 44.30142 34986 ft 451 kts 92°
2026-05-01 11:06 40.81588 44.38450 34986 ft 451 kts 92°
2026-05-01 11:06 40.81275 44.46715 34986 ft 451 kts 92°
2026-05-01 11:07 40.80796 44.59090 34986 ft 451 kts 92°
2026-05-01 11:07 40.80468 44.67382 34986 ft 451 kts 93°
2026-05-01 11:08 40.80135 44.75631 34987 ft 451 kts 93°
2026-05-01 11:09 40.79627 44.87983 34987 ft 451 kts 93°
2026-05-01 11:09 40.79278 44.96262 34987 ft 451 kts 93°
2026-05-01 11:10 40.78745 45.08655 34987 ft 451 kts 93°
2026-05-01 11:10 40.78381 45.16952 34986 ft 451 kts 93°
2026-05-01 11:11 40.78015 45.25173 34986 ft 451 kts 93°
2026-05-01 11:11 40.77640 45.33458 34986 ft 451 kts 93°
2026-05-01 11:12 40.77259 45.41703 34986 ft 451 kts 93°
2026-05-01 11:12 40.77120 45.49961 34986 ft 451 kts 88°
2026-05-01 11:13 40.77663 45.58213 34986 ft 451 kts 82°
2026-05-01 11:13 40.78491 45.66169 34986 ft 451 kts 82°
2026-05-01 11:14 40.79348 45.74363 34987 ft 451 kts 82°
2026-05-01 11:14 40.80194 45.82576 34987 ft 451 kts 82°
2026-05-01 11:15 40.81029 45.90772 34987 ft 451 kts 82°
2026-05-01 11:15 40.81731 45.97722 34978 ft 452 kts 82°
2026-05-01 11:16 40.82447 46.04880 34990 ft 462 kts 82°
2026-05-01 11:16 40.83300 46.13409 35033 ft 474 kts 82°
2026-05-01 11:17 40.84165 46.22142 35050 ft 485 kts 82°
2026-05-01 11:17 40.85043 46.31091 35057 ft 496 kts 82°
2026-05-01 11:18 40.85935 46.40251 35058 ft 505 kts 82°
2026-05-01 11:18 40.86823 46.49455 35058 ft 506 kts 82°
2026-05-01 11:19 40.87701 46.58641 35059 ft 506 kts 82°
2026-05-01 11:19 40.88578 46.67878 35058 ft 506 kts 83°
2026-05-01 11:20 40.89444 46.77132 35057 ft 506 kts 83°
2026-05-01 11:20 40.90633 46.86239 35058 ft 505 kts 76°
2026-05-01 11:21 40.92306 46.95304 35059 ft 505 kts 74°
2026-05-01 11:21 40.94001 47.04311 35059 ft 504 kts 73°
2026-05-01 11:22 40.95665 47.13267 35059 ft 504 kts 73°
2026-05-01 11:22 40.97326 47.22278 35058 ft 505 kts 74°
2026-05-01 11:23 40.98977 47.31321 35058 ft 505 kts 74°
2026-05-01 11:23 41.00623 47.40388 35057 ft 506 kts 74°
2026-05-01 11:24 41.02261 47.49443 35059 ft 507 kts 74°
2026-05-01 11:25 41.04709 47.63051 35056 ft 508 kts 75°
2026-05-01 11:25 41.07143 47.76694 35049 ft 509 kts 75°
2026-05-01 11:26 41.09713 47.90387 35042 ft 508 kts 70°
2026-05-01 11:27 41.12306 47.99100 35030 ft 507 kts 61°
2026-05-01 11:27 41.15822 48.07126 35020 ft 503 kts 51°
2026-05-01 11:28 41.19932 48.14594 35011 ft 501 kts 49°
2026-05-01 11:28 41.24091 48.22026 35007 ft 502 kts 49°
2026-05-01 11:29 41.30278 48.33254 35005 ft 502 kts 50°
2026-05-01 11:30 41.36433 48.44516 34999 ft 502 kts 50°
2026-05-01 11:30 41.40506 48.51987 34997 ft 502 kts 50°
2026-05-01 11:31 41.44639 48.59514 34998 ft 501 kts 49°
2026-05-01 11:31 41.48824 48.66964 34994 ft 502 kts 49°
2026-05-01 11:32 41.52974 48.74464 34996 ft 503 kts 51°
2026-05-01 11:32 41.56903 48.82187 34996 ft 504 kts 52°
2026-05-01 11:33 41.60791 48.89951 34995 ft 504 kts 52°
2026-05-01 11:33 41.64681 48.97714 34992 ft 503 kts 52°
2026-05-01 11:34 41.68552 49.05434 34987 ft 504 kts 52°
2026-05-01 11:34 41.72454 49.13234 34986 ft 506 kts 53°
2026-05-01 11:35 41.76364 49.21078 34987 ft 507 kts 53°
2026-05-01 11:35 41.80259 49.28916 34986 ft 507 kts 53°
2026-05-01 11:36 41.84359 49.36635 34986 ft 506 kts 50°
2026-05-01 11:36 41.88517 49.44219 34986 ft 506 kts 50°
2026-05-01 11:37 41.92669 49.51816 34986 ft 506 kts 50°
2026-05-01 11:37 41.96802 49.59418 34985 ft 506 kts 50°
2026-05-01 11:38 42.00946 49.67060 34984 ft 506 kts 51°
2026-05-01 11:38 42.05076 49.74700 34987 ft 507 kts 51°
2026-05-01 11:39 42.09214 49.82375 34986 ft 507 kts 51°
2026-05-01 11:39 42.13354 49.90076 34987 ft 507 kts 51°
2026-05-01 11:40 42.17459 49.97731 34986 ft 506 kts 51°
2026-05-01 11:40 42.18154 49.99028 34986 ft 506 kts 51°